Weather History for Tehachapi, CA

Change the Weather History Date:

Thursday, January 22, 2015

  Actual Average Record
Temperature  
Mean Temperature 44 °F -  
Max Temperature 57 °F 52 °F 64 °F (2014)
Min Temperature 32 °F 31 °F 26 °F (2012)
Degree Days  
Heating Degree Days 20    
Moisture  
Dew Point 15 °F    
Average Humidity 32    
Maximum Humidity 51    
Minimum Humidity 17    
Precipitation  
Precipitation 0.00 in - - ()
Sea Level Pressure  
Sea Level Pressure 30.30 in    
Wind  
Wind Speed 10 mph (ESE)    
Max Wind Speed 16 mph    
Max Gust Speed 20 mph    
Visibility 10 miles    
Events      
Averages and records for this station are not official NWS values.
T = Trace of Precipitation, MM = Missing Value Source: NWS Daily Summary

Daily Weather History Graph

Daily Weather History Graph

Search for Another Location

Airport:

Trip Planner

Search our weather history database for the weather conditions in past years. The results will help you decide how hot, cold, wet, or windy it might be!

Date:

Astronomy

Jan. 22, 2015 Rise Set
Actual Time 6:59 AM PST 5:11 PM PST
Civil Twilight 6:31 AM PST 5:39 PM PST
Nautical Twilight 6:01 AM PST 6:09 PM PST
Astronomical Twilight 5:30 AM PST 6:40 PM PST
Moon 8:21 AM PST (1/22) 8:08 PM PST (1/22)
Length of Visible Light 11h 07m
Length of Day
10h 12m
Waxing Crescent, 8% of the Moon is Illuminated
Jan 22
Waxing Crescent
Jan 26
First Quarter
Feb 3
Full
Feb 11
Last Quarter
Feb 18
New

Hourly Weather History & Observations

Time (PST) Temp. Windchill Dew Point Humidity Pressure Visibility Wind Dir Wind Speed Gust Speed Precip Events Conditions
12:15 AM 35.6 °F 29.2 °F 17.6 °F 48% 30.25 in 10.0 mi ESE 8.1 mph - N/A   Clear
12:35 AM 37.4 °F 31.4 °F 15.8 °F 41% 30.25 in 10.0 mi ESE 8.1 mph - N/A   Clear
12:55 AM 39.2 °F 32.5 °F 15.8 °F 39% 30.25 in 10.0 mi ESE 10.4 mph - N/A   Clear
1:15 AM 39.2 °F 33.0 °F 15.8 °F 39% 30.25 in 10.0 mi ESE 9.2 mph - N/A   Clear
1:35 AM 33.8 °F 25.3 °F 15.8 °F 48% 30.26 in 10.0 mi ESE 11.5 mph - N/A   Clear
1:55 AM 33.8 °F 24.8 °F 15.8 °F 48% 30.26 in 10.0 mi ESE 12.7 mph - N/A   Clear
2:15 AM 33.8 °F 25.3 °F 15.8 °F 48% 30.25 in 10.0 mi ESE 11.5 mph - N/A   Clear
2:35 AM 35.6 °F 28.0 °F 15.8 °F 44% 30.25 in 10.0 mi ESE 10.4 mph - N/A   Clear
2:55 AM 37.4 °F 30.3 °F 14.0 °F 38% 30.25 in 10.0 mi East 10.4 mph - N/A   Clear
3:15 AM 41.0 °F 33.9 °F 12.2 °F 31% 30.25 in 10.0 mi East 12.7 mph - N/A   Clear
3:35 AM 41.0 °F 34.7 °F 12.2 °F 31% 30.25 in 10.0 mi ESE 10.4 mph - N/A   Clear
3:55 AM 39.2 °F 32.0 °F 12.2 °F 33% 30.25 in 10.0 mi East 11.5 mph - N/A   Clear
4:15 AM 41.0 °F 35.8 °F 12.2 °F 31% 30.25 in 10.0 mi ESE 8.1 mph - N/A   Clear
4:35 AM 37.4 °F 30.3 °F 14.0 °F 38% 30.25 in 10.0 mi East 10.4 mph - N/A   Clear
4:55 AM 33.8 °F 27.0 °F 14.0 °F 44% 30.25 in 10.0 mi ESE 8.1 mph - N/A   Clear
5:15 AM 35.6 °F 28.6 °F 14.0 °F 41% 30.25 in 10.0 mi East 9.2 mph - N/A   Clear
5:35 AM 32.0 °F 23.6 °F 15.8 °F 51% 30.26 in 10.0 mi SE 10.4 mph - N/A   Clear
5:55 AM 32.0 °F 23.6 °F 14.0 °F 48% 30.26 in 10.0 mi ESE 10.4 mph - N/A   Clear
6:15 AM 35.6 °F 28.6 °F 14.0 °F 41% 30.27 in 10.0 mi ESE 9.2 mph - N/A   Clear
6:35 AM 32.0 °F 24.2 °F 14.0 °F 48% 30.28 in 10.0 mi SE 9.2 mph - N/A   Clear
6:55 AM 35.6 °F 28.6 °F 12.2 °F 38% 30.29 in 10.0 mi ESE 9.2 mph - N/A   Clear
7:15 AM 37.4 °F 30.8 °F 12.2 °F 36% 30.29 in 10.0 mi ESE 9.2 mph - N/A   Clear
7:35 AM 37.4 °F 30.8 °F 12.2 °F 36% 30.30 in 10.0 mi ESE 9.2 mph - N/A   Clear
7:55 AM 41.0 °F 34.3 °F 10.4 °F 29% 30.30 in 10.0 mi East 11.5 mph - N/A   Clear
8:15 AM 42.8 °F 37.0 °F 12.2 °F 29% 30.31 in 10.0 mi ESE 10.4 mph - N/A   Clear
8:35 AM 46.4 °F 41.9 °F 12.2 °F 25% 30.31 in 10.0 mi East 9.2 mph - N/A   Clear
8:55 AM 48.2 °F - 14.0 °F 25% 30.32 in 10.0 mi East 11.5 mph - N/A   Clear
9:15 AM 50.0 °F - 14.0 °F 24% 30.33 in 10.0 mi ESE 12.7 mph - N/A   Clear
9:35 AM 50.0 °F - 15.8 °F 26% 30.33 in 10.0 mi ESE 11.5 mph - N/A   Clear
9:55 AM 51.8 °F - 14.0 °F 22% 30.34 in 10.0 mi ESE 11.5 mph 16.1 mph N/A   Clear
10:15 AM 53.6 °F - 12.2 °F 19% 30.34 in 10.0 mi SE 13.8 mph 18.4 mph N/A   Clear
10:35 AM 53.6 °F - 12.2 °F 19% 30.34 in 10.0 mi ESE 11.5 mph - N/A   Clear
11:15 AM 53.6 °F - 12.2 °F 19% 30.33 in 10.0 mi ESE 16.1 mph - N/A   Clear
11:35 AM 55.4 °F - 14.0 °F 20% 30.32 in 10.0 mi SE 12.7 mph 18.4 mph N/A   Clear
11:55 AM 53.6 °F - 12.2 °F 19% 30.31 in 10.0 mi ESE 11.5 mph - N/A   Clear
12:15 PM 55.4 °F - 14.0 °F 20% 30.30 in 10.0 mi SE 15.0 mph - N/A   Clear
12:55 PM 57.2 °F - 14.0 °F 18% 30.29 in 10.0 mi SE 15.0 mph 19.6 mph N/A   Clear
1:15 PM 57.2 °F - 14.0 °F 18% 30.29 in 10.0 mi SE 16.1 mph - N/A   Clear
1:35 PM 55.4 °F - 10.4 °F 17% 30.29 in 10.0 mi ESE 12.7 mph - N/A   Clear
1:55 PM 55.4 °F - 10.4 °F 17% 30.29 in 10.0 mi ESE 12.7 mph - N/A   Clear
2:15 PM 55.4 °F - 10.4 °F 17% 30.29 in 10.0 mi ESE 9.2 mph 18.4 mph N/A   Clear
2:35 PM 53.6 °F - 10.4 °F 18% 30.29 in 10.0 mi ESE 10.4 mph - N/A   Clear
2:55 PM 53.6 °F - 14.0 °F 21% 30.30 in 10.0 mi SE 11.5 mph - N/A   Clear
3:15 PM 53.6 °F - 14.0 °F 21% 30.30 in 10.0 mi SE 10.4 mph - N/A   Clear
3:35 PM 53.6 °F - 14.0 °F 21% 30.30 in 10.0 mi ESE 6.9 mph - N/A   Clear
3:55 PM 51.8 °F - 14.0 °F 22% 30.30 in 10.0 mi East 9.2 mph - N/A   Clear
4:15 PM 51.8 °F - 14.0 °F 22% 30.31 in 10.0 mi East 8.1 mph - N/A   Clear
4:35 PM 50.0 °F - 14.0 °F 24% 30.30 in 10.0 mi East 8.1 mph - N/A   Clear
4:55 PM 50.0 °F - 14.0 °F 24% 30.31 in 10.0 mi ESE 6.9 mph - N/A   Clear
5:15 PM 48.2 °F - 15.8 °F 27% 30.31 in 10.0 mi SE 5.8 mph - N/A   Clear
5:35 PM 46.4 °F 42.9 °F 17.6 °F 32% 30.32 in 10.0 mi SE 6.9 mph - N/A   Clear
5:55 PM 46.4 °F 42.4 °F 17.6 °F 32% 30.32 in 10.0 mi SE 8.1 mph - N/A   Clear
6:15 PM 44.6 °F 40.7 °F 17.6 °F 34% 30.33 in 10.0 mi SE 6.9 mph - N/A   Clear
6:35 PM 44.6 °F - 19.4 °F 37% 30.33 in 10.0 mi Calm Calm - N/A   Clear
6:55 PM 44.6 °F 43.1 °F 19.4 °F 37% 30.34 in 10.0 mi NE 3.5 mph - N/A   Partly Cloudy
7:15 PM 44.6 °F - 19.4 °F 37% 30.34 in 10.0 mi Calm Calm - N/A   Clear
7:35 PM 42.8 °F 41.1 °F 21.2 °F 42% 30.34 in 10.0 mi SE 3.5 mph - N/A   Clear
7:55 PM 42.8 °F 38.6 °F 19.4 °F 39% 30.34 in 10.0 mi ESE 6.9 mph - N/A   Partly Cloudy
8:15 PM 41.0 °F 35.8 °F 21.2 °F 45% 30.34 in 10.0 mi SE 8.1 mph - N/A   Scattered Clouds
8:35 PM 42.8 °F 37.5 °F 19.4 °F 39% 30.35 in 10.0 mi ESE 9.2 mph - N/A   Mostly Cloudy
8:55 PM 42.8 °F 37.5 °F 17.6 °F 36% 30.35 in 10.0 mi ESE 9.2 mph - N/A   Overcast
9:15 PM 44.6 °F 39.7 °F 17.6 °F 34% 30.35 in 10.0 mi East 9.2 mph - N/A   Mostly Cloudy
9:35 PM 46.4 °F 41.9 °F 14.0 °F 27% 30.35 in 10.0 mi East 9.2 mph - N/A   Mostly Cloudy
9:55 PM 44.6 °F 38.8 °F 17.6 °F 34% 30.35 in 10.0 mi ESE 11.5 mph - N/A   Clear
10:15 PM 41.0 °F 34.7 °F 15.8 °F 36% 30.35 in 10.0 mi ESE 10.4 mph - N/A   Clear
10:35 PM 37.4 °F 29.8 °F 19.4 °F 48% 30.35 in 10.0 mi SE 11.5 mph - N/A   Clear
10:55 PM 39.2 °F 31.6 °F 17.6 °F 42% 30.36 in 10.0 mi ESE 12.7 mph - N/A   Clear
11:15 PM 42.8 °F 36.6 °F 14.0 °F 31% 30.35 in 10.0 mi East 11.5 mph - N/A   Clear
11:35 PM 41.0 °F 35.2 °F 14.0 °F 33% 30.35 in 10.0 mi East 9.2 mph - N/A   Clear
11:55 PM 42.8 °F 37.0 °F 14.0 °F 31% 30.35 in 10.0 mi ESE 10.4 mph - N/A   Clear